Theta_e
306 306 308 311 311 310 310 311 308 310 311 316 315 321 323 331 336 337 336 337 337 338 338 345 344 346 347 347 349 350 351 350 349 352 352 349 347 347 349 349 348 349 347 346
308 311 310 309 311 311 311 310 310 313 314 320 320 324 324 331 333 335 335 335 334 336 339 337 342 345 344 350 351 350 347 347 350 350 348 347 347 347 347 347 345 344 342 342
302 310 310 307 312 312 313 315 315 311 317 319 322 321 324 329 333 335 334 335 335 338 335 337 341 344 343 350 350 344 343 345 347 345 344 345 347 347 346 342 342 340 341 341
307 309 301 310 316 316 315 315 317 317 319 324 327 327 327 334 332 334 335 334 334 332 332 335 339 341 346 345 344 344 342 342 344 345 342 346 348 345 343 341 341 340 340 340
306 306 308 310 314 315 314 314 319 317 319 327 331 331 328 335 336 334 334 336 335 334 337 340 341 345 345 342 343 342 342 344 345 342 344 343 341 341 341 340 340 339 339 339
307 304 301 312 316 320 318 310 320 324 326 328 332 323 329 337 337 334 335 335 336 341 340 342 343 345 343 343 341 342 344 343 344 343 342 340 340 340 341 340 338 337 336 337
309 307 309 315 319 320 309 312 322 325 328 330 329 329 330 332 331 332 332 331 332 334 340 339 342 343 341 339 335 337 340 339 336 335 335 335 334 335 335 335 335 335 335 336
310 308 305 319 319 314 320 326 329 330 331 329 330 332 333 332 330 326 325 332 333 333 330 336 339 337 331 327 328 330 330 329 328 328 327 326 328 328 327 328 328 329 331 330
314 314 319 323 324 327 327 327 333 331 333 332 332 331 332 332 331 328 325 330 331 328 326 326 326 327 323 321 323 324 324 323 323 323 322 323 323 322 320 322 321 321 321 322
314 316 319 321 324 325 327 327 332 332 334 333 329 332 331 330 330 327 329 328 325 325 324 321 321 320 319 319 320 320 319 318 318 318 317 319 319 318 317 317 317 317 316 317
316 319 321 322 324 326 329 331 332 332 334 334 334 333 333 331 330 327 328 327 326 324 320 318 319 317 317 317 317 316 316 316 316 315 315 316 317 316 315 316 312 312 313 314
313 319 321 322 321 328 329 330 333 331 331 334 335 332 331 329 329 329 326 325 322 320 319 317 316 315 315 316 315 314 314 313 312 313 313 313 313 314 310 307 305 302 301 304
319 319 322 323 321 324 326 331 334 333 333 333 333 331 329 327 326 320 323 322 320 317 316 315 314 313 314 314 314 313 312 312 312 311 312 311 311 310 309 311 307 303 302 302
321 319 318 319 320 328 331 331 329 331 331 331 330 329 326 322 321 321 320 318 316 315 314 313 313 312 313 313 313 312 312 307 311 310 310 310 310 309 309 307 306 307 306 304
323 323 320 324 326 328 331 330 328 326 325 325 326 324 323 320 318 317 316 315 314 313 312 312 311 310 312 311 310 309 309 309 309 308 308 307 307 306 305 304 303 304 306 304
321 323 322 323 325 327 328 329 327 324 323 322 322 321 320 318 316 314 314 313 312 309 310 310 309 310 310 309 308 307 307 306 306 307 306 306 306 303 302 301 301 302 303 304
319 319 322 323 324 324 325 326 325 323 321 321 319 317 316 314 313 312 311 312 311 310 310 310 310 312 311 309 308 307 306 306 304 306 306 306 305 304 304 303 303 303 303 303
322 322 325 326 324 322 322 322 322 322 320 318 317 317 315 315 313 312 311 311 310 310 311 311 311 311 312 311 309 309 308 306 305 305 306 306 305 306 305 304 303 301 302 302
324 323 324 324 324 323 322 322 322 320 318 317 315 315 314 313 312 311 310 309 309 309 309 312 310 310 312 312 310 311 310 308 307 305 305 305 306 306 306 305 304 303 301 300
322 323 323 322 324 323 322 322 320 319 319 317 315 313 312 311 312 310 309 309 310 311 314 313 313 313 312 312 310 311 310 310 308 308 306 304 305 306 306 302 304 304 302 300
322 322 322 322 321 322 321 321 319 317 316 315 313 313 312 312 311 310 308 307 311 312 312 312 313 313 313 312 312 312 311 310 310 309 308 306 305 305 305 306 306 305 304 302
322 321 320 319 317 316 315 317 315 314 313 313 313 313 311 310 310 310 313 311 312 305 312 313 313 313 313 312 313 313 313 312 311 310 309 309 308 305 305 305 304 304 304 304
320 319 319 318 317 314 313 312 313 314 314 313 312 312 311 311 312 310 309 315 315 312 314 314 313 311 311 313 314 314 313 312 312 311 311 311 310 308 306 306 305 305 305 304
319 319 317 316 313 312 311 313 314 314 316 316 315 315 314 312 314 315 317 310 306 308 312 314 314 310 307 314 315 315 314 314 313 313 312 303 310 310 309 307 306 306 306 304
319 318 316 316 315 314 315 314 314 314 315 315 316 317 318 318 316 315 316 316 308 308 313 311 309 308 313 315 315 315 315 315 315 315 314 313 313 312 311 310 308 307 306 305
318 314 316 316 314 315 315 315 313 313 312 311 313 314 315 316 315 313 315 311 316 310 313 315 315 316 315 316 316 316 316 316 315 315 312 314 314 313 313 312 311 309 308 307
317 311 316 316 316 315 316 315 314 313 311 312 312 314 315 316 315 313 310 316 315 314 314 315 317 315 315 316 316 316 316 317 310 317 316 316 315 315 314 313 312 311 309 307
Wind_Speed
1 3 4 4 8 11 7 1 5 3 6 4 1 9 15 14 16 17 17 16 13 10 7 7 8 6 5 8 5 6 7 8 8 7 7 7 4 2 5 6 5 6 7 8
1 2 6 4 6 6 5 3 7 3 7 1 3 6 13 15 18 19 18 17 14 11 9 10 11 9 5 8 6 5 6 5 4 5 5 3 2 1 3 4 6 7 9 9
5 2 5 5 11 9 4 4 4 7 3 4 2 9 15 17 19 19 21 19 13 7 6 10 8 7 5 6 7 5 4 4 5 5 6 3 4 4 4 6 7 9 9 9
4 4 5 3 1 2 8 5 9 9 8 4 5 2 9 14 15 15 19 16 8 5 7 7 5 5 6 7 6 5 4 4 5 6 4 4 4 4 5 5 7 8 9 8
5 8 2 2 7 8 9 9 12 10 5 3 3 3 3 5 8 8 8 8 8 5 8 7 6 5 5 6 6 5 5 5 3 2 3 4 5 6 6 7 8 8 9 9
4 5 9 2 5 4 5 9 9 6 3 5 7 5 5 8 9 9 12 7 5 7 7 7 5 6 6 5 3 3 3 4 4 5 5 5 6 8 7 7 9 9 10 10
4 3 4 3 7 6 7 3 5 1 4 5 5 2 10 17 19 16 11 8 6 5 3 4 5 7 8 8 8 7 6 6 7 7 6 7 7 7 8 9 10 11 10 10
3 2 6 5 7 6 3 1 2 6 9 15 14 12 15 18 18 16 13 14 7 5 4 8 10 10 10 11 8 8 7 7 7 7 6 7 9 8 9 9 11 10 10 9
5 0 2 3 2 1 0 3 7 7 14 19 18 15 15 14 15 13 15 8 5 7 10 12 12 9 10 9 8 8 7 8 9 9 9 8 8 9 9 8 9 9 9 10
4 3 6 7 6 6 4 2 5 7 14 14 17 16 12 9 7 11 11 10 9 9 12 12 11 11 10 9 8 8 8 8 8 8 9 8 7 7 8 8 9 9 9 10
5 7 8 11 9 7 6 4 9 9 10 9 17 13 11 11 11 11 11 10 9 11 11 10 8 9 9 9 10 8 7 7 7 6 8 9 7 7 7 7 7 9 9 10
1 1 2 0 1 7 6 4 12 14 11 10 9 14 16 14 12 12 11 10 11 11 10 8 8 9 10 10 9 8 7 7 7 7 7 7 8 8 3 9 11 11 11 8
2 2 5 4 3 4 7 4 12 13 12 12 11 13 16 16 13 13 13 12 10 10 9 8 8 8 9 8 7 8 7 8 6 6 7 8 8 9 10 8 7 7 9 11
5 2 1 1 2 2 8 11 12 13 12 11 14 14 14 14 14 13 11 11 10 9 8 8 8 9 7 7 7 8 7 4 6 6 7 8 9 9 10 11 12 11 11 12
10 7 3 3 4 7 9 12 14 14 14 14 13 15 15 16 14 13 11 11 10 10 9 9 9 9 8 8 8 8 7 7 7 6 7 7 8 9 9 10 11 11 12 10
6 7 4 3 4 7 8 9 11 12 13 14 15 15 15 14 13 12 10 8 9 9 10 9 8 7 7 7 7 6 6 8 6 6 6 8 8 9 9 10 11 11 11 12
10 7 7 7 7 7 5 5 7 11 12 14 14 15 14 15 13 11 10 10 11 10 9 8 7 5 6 6 7 6 5 5 5 5 6 7 7 8 8 9 10 11 11 12
2 4 4 7 10 10 9 9 11 13 14 15 14 13 13 11 11 11 11 10 9 8 7 6 5 4 3 4 5 4 4 5 5 6 6 6 7 7 8 9 9 10 11 13
7 8 9 11 10 11 10 11 12 13 14 13 11 10 10 11 11 11 10 9 7 6 6 5 5 4 1 1 3 2 3 5 5 5 5 5 6 6 7 7 9 9 9 9
12 12 13 13 10 11 13 12 14 12 10 10 10 10 11 10 10 10 9 7 4 3 6 6 6 4 4 4 6 4 4 5 5 5 5 5 5 6 6 6 7 8 9 8
13 13 15 14 14 13 12 9 10 9 8 8 9 10 10 10 9 8 6 4 4 7 6 4 5 4 5 6 6 5 6 6 6 6 5 6 6 6 7 7 7 8 9 8
12 12 13 12 10 11 8 9 7 9 9 8 8 9 9 8 7 4 2 1 4 4 3 4 5 7 7 6 7 7 7 8 7 6 6 6 6 7 8 8 8 9 9 9
9 11 12 11 11 11 10 9 5 7 8 7 7 8 7 5 5 4 4 4 4 4 4 5 7 9 9 7 7 8 8 8 8 7 7 7 7 7 8 8 8 9 9 9
9 9 10 9 7 8 9 5 5 5 5 5 6 7 6 5 5 5 3 4 4 5 5 6 6 6 7 7 7 7 7 7 7 7 7 7 7 7 7 8 8 8 9 10
8 9 9 8 6 5 7 7 6 6 6 6 7 7 7 5 4 2 3 3 4 5 6 6 6 9 7 7 8 8 7 6 6 6 7 7 7 8 8 8 8 9 9 10
7 5 5 6 4 5 5 6 5 5 5 5 4 4 5 5 5 4 4 4 4 4 5 6 7 6 7 8 8 8 7 6 7 7 7 7 8 8 8 8 9 9 8 9
5 5 5 4 3 5 5 6 6 6 6 5 5 4 5 5 5 6 5 5 5 5 5 6 6 6 7 8 8 8 7 6 7 7 6 7 8 8 8 8 8 8 8 8
Wind_Direction
193 280 234 266 187 176 215 185 241 75 222 7 326 201 180 162 161 162 159 163 166 176 207 163 137 117 80 94 156 170 212 212 200 183 176 193 188 315 331 334 344 345 341 343
122 347 221 238 181 187 221 197 262 258 278 139 133 162 176 179 172 172 162 168 178 201 196 186 156 152 113 111 184 167 216 238 255 243 225 226 254 308 305 317 327 328 333 332
217 67 163 215 206 198 191 202 225 225 247 341 189 185 193 191 192 175 166 175 187 191 158 163 159 136 88 135 149 178 207 236 255 280 269 273 274 268 304 321 325 330 329 330
122 155 192 53 290 213 223 234 222 263 270 298 287 225 203 195 194 179 175 174 153 142 152 146 148 125 137 152 162 187 198 242 259 251 272 291 286 306 312 315 322 321 315 320
166 198 341 225 201 190 190 233 213 226 221 219 168 195 198 225 195 186 155 114 131 144 121 124 131 146 149 157 173 185 219 249 272 354 349 320 311 314 310 305 313 309 304 304
167 181 214 206 150 149 135 252 203 210 270 187 168 226 74 68 78 82 57 10 50 73 99 117 138 152 146 147 157 45 35 26 33 14 347 336 334 326 319 307 297 299 295 297
151 218 271 203 151 158 202 316 87 28 37 139 172 1 111 92 81 75 46 358 348 345 65 66 128 129 110 88 54 26 32 43 38 24 3 4 344 342 330 318 309 296 294 292
117 175 254 147 146 215 22 289 22 75 111 117 124 127 122 111 112 89 58 279 51 72 48 60 79 91 85 63 35 31 30 28 21 8 356 352 342 335 329 323 308 309 308 301
234 280 84 207 321 28 64 308 61 115 138 137 144 148 156 152 146 140 142 208 136 123 92 67 62 66 74 46 30 20 16 11 3 357 358 345 338 335 325 325 315 315 311 309
251 174 247 235 236 237 248 294 69 139 165 165 159 165 147 118 119 99 124 123 133 119 86 74 60 57 54 34 19 18 15 9 3 353 343 345 339 338 330 330 327 321 319 307
252 266 271 260 238 232 214 167 117 144 176 170 157 150 143 141 134 117 114 114 111 95 86 78 69 56 42 34 21 14 5 5 2 350 346 347 345 338 332 333 331 318 316 321
165 194 275 307 251 197 196 170 149 149 170 185 162 149 140 132 126 122 119 116 98 96 91 76 62 50 38 31 19 6 4 4 11 348 352 343 334 332 271 254 273 286 293 286
103 202 203 277 273 248 230 163 149 143 157 163 154 142 135 128 123 117 114 104 99 93 86 73 65 56 42 27 17 21 15 7 2 355 358 353 350 341 335 335 310 295 306 308
209 157 207 357 12 91 116 109 111 116 133 146 139 129 122 116 116 111 111 112 107 104 100 93 80 67 45 34 34 32 24 26 358 6 1 355 353 346 342 342 340 341 344 336
220 214 17 101 126 109 126 134 124 125 132 136 137 130 132 129 129 125 122 118 118 110 100 94 84 63 44 42 42 36 21 16 12 17 18 1 1 357 354 347 342 337 337 342
153 183 161 158 139 135 142 150 137 138 139 140 136 138 131 123 120 118 124 136 125 99 90 88 81 70 56 42 39 37 40 27 14 14 10 7 7 2 352 348 346 344 340 342
133 146 158 159 165 145 140 130 133 140 139 137 131 129 126 120 123 121 117 111 105 102 105 100 90 78 64 47 41 33 28 33 12 23 19 13 9 4 1 351 347 342 339 343
2 334 173 158 151 138 129 127 133 138 134 127 127 128 129 136 131 125 120 116 116 118 109 111 113 97 74 53 36 31 25 29 19 21 9 9 355 357 354 350 348 340 335 334
97 107 102 113 128 130 133 133 129 123 124 125 128 130 125 119 119 124 128 140 142 136 140 152 158 220 148 29 300 338 4 9 15 9 356 337 356 2 352 352 347 343 340 331
105 103 106 108 113 118 120 119 119 117 123 129 133 134 121 122 132 138 148 152 155 106 150 180 209 239 259 255 247 285 306 322 331 332 345 326 342 336 345 343 334 346 347 339
110 113 112 112 107 105 106 114 118 125 136 134 130 131 133 136 138 139 153 175 147 189 209 198 244 259 252 259 253 274 282 291 293 302 313 320 318 318 323 328 327 333 335 344
112 108 107 109 105 102 109 104 115 129 128 119 122 131 135 134 140 164 219 244 124 167 205 236 245 245 263 272 268 274 277 279 281 285 284 292 301 306 308 309 316 321 325 324
114 116 116 119 119 114 101 103 121 131 125 128 139 149 160 157 179 190 206 180 217 191 239 244 252 260 267 267 275 280 277 276 277 278 276 277 281 288 294 300 307 306 312 317
120 120 114 105 87 106 116 108 139 145 142 152 166 178 181 185 198 220 229 172 247 246 242 254 272 282 284 287 284 282 276 274 271 266 267 259 270 277 282 290 296 301 303 301
133 129 129 132 136 123 131 151 147 159 173 186 190 195 204 213 250 110 196 209 214 242 255 268 274 278 285 290 294 289 277 266 261 258 255 258 266 271 277 284 288 298 304 303
151 150 154 150 149 151 158 166 183 177 179 179 187 199 202 204 214 224 226 236 244 238 259 278 283 294 296 298 301 288 273 268 254 241 246 258 260 265 272 278 285 290 297 301
136 127 133 135 164 169 182 193 195 191 191 203 217 208 226 233 234 232 233 238 235 238 253 270 283 287 292 298 298 291 275 264 252 262 254 259 265 268 273 276 280 284 287 293